Fort Pierre, SD

10:10 PM MDT on August 31, 2016 (GMT -0600)
Pierre Regional

Weather History for KPIR - March, 2014

Change the Weather History Date:

Tuesday, March 4, 2014

  Actual Average Record
Temperature  
Mean Temperature 10 °F 30 °F  
Max Temperature 18 °F 40 °F 75 °F (2000)
Min Temperature 1 °F 19 °F -18 °F (1960)
Degree Days  
Heating Degree Days 55 35  
Month to date heating degree days 263 143  
Since 1 July heating degree days 6258 5641  
Cooling Degree Days 0 0  
Month to date cooling degree days 0 0  
Year to date cooling degree days 0 0  
Moisture  
Dew Point 7 °F    
Average Humidity 78    
Maximum Humidity 88    
Minimum Humidity 67    
Precipitation  
Precipitation 0.04 in 0.03 in 0.60 in (1966)
Month to date precipitation 0.14 0.12  
Year to date precipitation 0.71 1.13  
Snow  
Snow 0.00 in 0.30 in 5.80 in (1966)
Month to date snowfall 2.2 1.0  
Since 1 July snowfall 27.1 22.8  
Snow Depth 3.00 in    
Sea Level Pressure  
Sea Level Pressure 30.12 in    
Wind  
Wind Speed 9 mph (NE)    
Max Wind Speed 20 mph    
Max Gust Speed 23 mph    
Visibility 7 miles    
Events Fog , Snow    
T = Trace of Precipitation, MM = Missing Value Source: NWS Daily Summary

Daily Weather History Graph

Daily Weather History Graph

Search for Another Location

Airport or City:

Trip Planner

Search our weather history database for the weather conditions in past years. The results will help you decide how hot, cold, wet, or windy it might be!

Date:

Astronomy

Mar. 04, 2014 Rise Set
Actual Time 7:13 AM CST 6:33 PM CST
Civil Twilight 6:44 AM CST 7:02 PM CST
Nautical Twilight 6:10 AM CST 7:35 PM CST
Astronomical Twilight 5:36 AM CST 8:09 PM CST
Moon 8:50 AM CST (3/4) 10:53 PM CST (3/4)
Length of Visible Light 12h 18m
Length of Day
11h 20m
Waxing Crescent, 15% of the Moon is Illuminated
Mar 4
Waxing Crescent
Mar 8
First Quarter
Mar 16
Full
Mar 23
Last Quarter
Mar 30
New

Hourly Weather History & Observations

Time (CST) Temp. Windchill Dew Point Humidity Pressure Visibility Wind Dir Wind Speed Gust Speed Precip Events Conditions
12:53 AM 3.9 °F -5.3 °F -0.0 °F 84% 30.11 in 10.0 mi North 4.6 mph - N/A   Clear
1:53 AM 3.0 °F -6.4 °F -2.0 °F 80% 30.12 in 10.0 mi North 4.6 mph - N/A   Clear
2:53 AM 3.9 °F -6.9 °F -0.9 °F 80% 30.11 in 10.0 mi NNE 5.8 mph - N/A   Overcast
3:53 AM 3.9 °F -6.9 °F -0.0 °F 84% 30.09 in 10.0 mi NE 5.8 mph - N/A   Partly Cloudy
4:53 AM 5.0 °F -4.1 °F 1.0 °F 84% 30.09 in 10.0 mi NE 4.6 mph - N/A   Mostly Cloudy
5:53 AM 6.1 °F -7.8 °F 1.0 °F 80% 30.09 in 10.0 mi ENE 9.2 mph - N/A   Mostly Cloudy
6:53 AM 7.0 °F -8.3 °F 1.0 °F 77% 30.10 in 10.0 mi East 11.5 mph - N/A   Overcast
7:53 AM 7.0 °F -9.1 °F 1.0 °F 77% 30.11 in 10.0 mi ENE 12.7 mph - N/A   Mostly Cloudy
8:53 AM 9.0 °F -7.9 °F 1.9 °F 73% 30.10 in 10.0 mi ENE 15.0 mph - N/A   Overcast
9:53 AM 10.9 °F -5.9 °F 3.9 °F 73% 30.09 in 10.0 mi East 16.1 mph - N/A   Overcast
10:53 AM 14.0 °F 3.9 °F 6.1 °F 71% 30.12 in 10.0 mi ENE 6.9 mph - N/A   Mostly Cloudy
11:53 AM 16.0 °F 7.4 °F 7.0 °F 68% 30.13 in 10.0 mi East 5.8 mph - N/A   Overcast
12:53 PM 16.0 °F 3.6 °F 8.1 °F 71% 30.12 in 10.0 mi NE 10.4 mph - N/A   Overcast
1:12 PM 16.0 °F 2.9 °F 8.1 °F 71% 30.01 in 10.0 mi NE 11.5 mph - 0.00 in   Overcast
1:53 PM 16.0 °F 2.9 °F 8.1 °F 71% 30.12 in 10.0 mi NE 11.5 mph - 0.00 in   Overcast
2:30 PM 17.1 °F 5.8 °F 9.0 °F 71% 30.00 in 10.0 mi ENE 9.2 mph - N/A   Overcast
2:44 PM 17.1 °F 6.6 °F 9.0 °F 71% 30.00 in 10.0 mi NE 8.1 mph - N/A   Overcast
2:53 PM 18.0 °F 6.1 °F 9.0 °F 68% 30.10 in 10.0 mi ENE 10.4 mph - N/A   Overcast
3:53 PM 17.1 °F 5.0 °F 9.0 °F 71% 30.12 in 10.0 mi ENE 10.4 mph - N/A   Overcast
4:06 PM 17.1 °F 4.3 °F 10.0 °F 74% 30.02 in 1.8 mi ENE 11.5 mph - 0.00 in Snow Light Snow
4:14 PM 16.0 °F 3.6 °F 10.9 °F 81% 30.02 in 0.8 mi ENE 10.4 mph - 0.00 in Snow Light Snow
4:36 PM 16.0 °F 2.9 °F 12.0 °F 84% 30.04 in 1.0 mi NNE 11.5 mph - 0.01 in Snow Light Snow
4:43 PM 16.0 °F 2.9 °F 12.0 °F 84% 30.04 in 1.0 mi NE 11.5 mph - 0.01 in Snow Light Snow
4:53 PM 16.0 °F 3.6 °F 12.0 °F 84% 30.14 in 1.2 mi NE 10.4 mph - 0.01 in Snow Light Snow
5:49 PM 15.8 °F 3.4 °F 10.4 °F 79% 30.06 in 2.5 mi ENE 10.4 mph - 0.00 in Snow Light Snow
5:53 PM 16.0 °F 4.4 °F 10.9 °F 81% 30.17 in 2.5 mi ENE 9.2 mph - 0.00 in Snow Light Snow
6:08 PM 16.0 °F 6.3 °F 12.0 °F 84% 30.07 in 1.2 mi ENE 6.9 mph - 0.00 in Snow Light Snow
6:53 PM 14.0 °F 0.5 °F 10.0 °F 84% 30.20 in 1.2 mi NE 11.5 mph - 0.00 in Snow Light Snow
7:04 PM 14.0 °F 2.0 °F 10.0 °F 84% 30.10 in 0.5 mi NE 9.2 mph - 0.01 in Fog , Snow Snow
7:12 PM 12.9 °F -0.2 °F 10.0 °F 88% 30.11 in 0.8 mi NNE 10.4 mph - 0.02 in Snow Light Snow
7:24 PM 12.9 °F -0.2 °F 10.0 °F 88% 30.12 in 1.2 mi NE 10.4 mph - 0.03 in Snow Light Snow
7:39 PM 12.9 °F -0.2 °F 10.0 °F 88% 30.12 in 1.0 mi NE 10.4 mph - 0.03 in Snow Light Snow
7:53 PM 12.9 °F 0.7 °F 9.0 °F 84% 30.24 in 2.0 mi NE 9.2 mph - 0.03 in Snow Light Snow
8:07 PM 12.0 °F 0.5 °F 8.1 °F 84% 30.13 in 4.0 mi NE 8.1 mph - 0.00 in Snow Light Snow
8:53 PM 10.9 °F -0.8 °F 7.0 °F 84% 30.25 in 10.0 mi NE 8.1 mph - 0.00 in   Overcast
9:53 PM 7.0 °F -6.6 °F 3.9 °F 87% 30.27 in 10.0 mi NE 9.2 mph - N/A   Clear
10:53 PM 9.0 °F -0.9 °F 5.0 °F 84% 30.30 in 10.0 mi NNE 5.8 mph - N/A   Overcast
11:53 PM 10.0 °F -0.9 °F 6.1 °F 84% 30.30 in 10.0 mi East 6.9 mph - N/A   Overcast